period_start,C,m1,H,J0,J1,J2,J3,J4,J5,JA,JB,JC,JD,JJ,JK,JN,#
2016-09-03 00:01:41,0.11,2.17,0.00,29.14,32.49,35.01,14.23,47.37,1026.38,2012.00,2680.67,2544.12,2880.55,599.57,588.95,33.58,0000 0000 0000 0000 000000
2016-09-03 00:06:42,0.13,2.18,0.00,29.17,32.50,34.99,14.21,47.33,1026.38,2011.99,2678.42,2542.61,2878.99,599.61,589.09,33.63,0000 0000 0000 0000 000000
2016-09-03 00:11:43,0.11,2.18,0.00,29.20,32.52,35.01,14.23,47.29,1026.38,2011.97,2676.40,2541.32,2877.58,599.97,589.38,33.68,0000 0000 0000 0000 000000
2016-09-03 00:16:45,0.09,2.19,0.00,29.21,32.54,35.02,14.25,47.44,1026.39,2011.93,2674.63,2540.16,2876.29,599.54,588.91,33.73,0000 0000 0000 0000 000000
2016-09-03 00:21:46,0.08,2.19,0.00,29.23,32.55,35.03,14.23,47.25,1026.38,2011.78,2673.00,2539.09,2875.06,599.82,589.24,33.78,0000 0000 0000 0000 000000
2016-09-03 00:26:48,0.05,2.19,0.00,29.25,32.57,35.03,14.26,47.20,1026.39,2011.42,2671.51,2538.09,2873.94,599.95,589.28,33.83,0000 0000 0000 0000 000000
2016-09-03 00:31:49,0.06,2.20,0.00,29.26,32.59,35.04,14.24,47.37,1026.39,2011.22,2669.96,2537.17,2872.84,599.50,588.76,33.88,0000 0000 0000 0000 000000
2016-09-03 00:36:50,0.07,2.20,0.00,29.29,32.61,35.05,14.24,47.38,1026.39,2011.08,2668.53,2536.19,2871.80,599.91,589.17,33.93,0000 0000 0000 0000 000000
2016-09-03 00:41:51,0.07,2.20,0.00,29.31,32.62,35.09,14.22,47.35,1026.39,2011.02,2667.34,2535.35,2870.79,599.62,588.94,33.98,0000 0000 0000 0000 000000
2016-09-03 00:46:52,0.06,2.21,0.00,29.35,32.65,35.08,14.20,47.38,1026.38,2011.01,2666.07,2534.59,2869.94,599.67,588.86,34.03,0000 0000 0000 0000 000000
2016-09-03 00:51:54,0.07,2.21,0.00,29.38,32.66,35.10,14.20,47.44,1026.38,2011.00,2664.81,2533.79,2869.00,599.62,588.69,34.08,0000 0000 0000 0000 000000
2016-09-03 00:56:55,0.08,2.22,0.00,29.40,32.69,35.12,14.27,47.52,1026.38,2011.00,2663.48,2532.88,2867.97,599.94,589.10,34.14,0000 0000 0000 0000 000000
2016-09-03 01:01:56,0.07,2.22,0.00,29.42,32.71,35.13,14.28,47.38,1026.39,2011.00,2662.12,2531.94,2866.88,600.41,589.35,34.19,0000 0000 0000 0000 000000
2016-09-03 01:06:58,0.11,2.22,0.00,29.46,32.73,35.16,14.21,47.48,1026.40,2010.96,2660.55,2530.82,2865.65,600.11,589.04,34.24,0000 0000 0000 0000 000000
2016-09-03 01:11:59,0.06,2.23,0.00,29.49,32.75,35.15,14.24,47.50,1026.41,2010.89,2659.15,2529.98,2864.67,600.03,588.90,34.29,0000 0000 0000 0000 000000
2016-09-03 01:17:00,0.07,2.23,0.00,29.53,32.77,35.15,14.30,47.49,1026.39,2010.83,2657.90,2529.11,2863.75,599.99,588.65,34.34,0000 0000 0000 0000 000000
2016-09-03 01:22:01,0.03,2.23,0.00,29.56,32.80,35.16,14.28,47.37,1026.40,2010.34,2656.49,2528.21,2862.56,600.27,588.94,34.39,0000 0000 0000 0000 000000
2016-09-03 01:27:03,0.08,2.24,0.00,29.57,32.82,35.20,14.32,47.48,1026.39,2010.09,2655.00,2527.27,2861.52,600.09,588.85,34.44,0000 0000 0000 0000 000000
2016-09-03 01:32:04,0.09,2.24,0.00,29.62,32.85,35.22,14.27,47.44,1026.40,2010.04,2653.26,2526.07,2860.31,599.55,588.19,34.49,0000 0000 0000 0000 000000
2016-09-03 01:37:05,0.12,2.25,0.00,29.65,32.87,35.21,14.27,47.49,1026.40,2010.01,2651.30,2524.82,2858.85,600.14,588.70,34.54,0000 0000 0000 0000 000000
2016-09-03 01:42:06,0.12,2.25,0.00,29.67,32.89,35.24,14.27,47.35,1026.40,2010.00,2649.26,2523.50,2857.34,600.47,589.03,34.59,0000 0000 0000 0000 000000
2016-09-03 01:47:08,0.10,2.26,0.00,29.72,32.91,35.25,14.28,47.32,1026.41,2010.00,2647.39,2522.14,2855.87,600.08,588.51,34.64,0000 0000 0000 0000 000000
2016-09-03 01:52:09,0.11,2.26,0.00,29.75,32.93,35.30,14.25,47.46,1026.42,2009.99,2645.64,2521.00,2854.56,600.02,588.37,34.69,0000 0000 0000 0000 000000
2016-09-03 01:57:10,0.09,2.27,0.00,29.77,32.95,35.28,14.24,47.48,1026.44,2009.96,2644.04,2519.84,2853.29,600.02,588.30,34.74,0000 0000 0000 0000 000000
2016-09-03 02:02:11,0.18,2.28,0.00,29.80,32.97,35.29,14.35,47.36,1026.48,2009.94,2641.68,2518.06,2851.24,600.58,588.85,34.79,0000 0000 0000 0000 000000
2016-09-03 02:07:13,0.34,2.29,0.00,29.84,32.99,35.33,14.28,47.33,1026.50,2009.86,2637.01,2514.15,2847.02,600.33,588.57,34.84,0000 0000 0000 0000 000000
2016-09-03 02:12:14,0.25,2.31,0.00,29.88,33.01,35.35,14.25,47.30,1026.52,2009.40,2632.33,2510.28,2842.78,600.00,588.15,34.89,0000 0000 0000 0000 000000
2016-09-03 02:17:15,0.25,2.32,0.00,29.93,33.03,35.35,14.24,47.33,1026.57,2009.08,2628.33,2507.06,2839.22,600.41,588.54,34.94,0000 0000 0000 0000 000000
2016-09-03 02:22:16,0.18,2.33,0.00,29.96,33.06,35.33,14.16,47.13,1026.65,2009.01,2625.22,2504.58,2836.55,600.27,588.26,34.99,0000 0000 0000 0000 000000
2016-09-03 02:27:18,0.15,2.34,0.00,30.00,33.08,35.37,14.22,47.22,1026.72,2009.00,2622.86,2502.70,2834.52,599.92,587.96,35.04,0000 0000 0000 0000 000000
2016-09-03 02:32:19,0.13,2.35,0.00,30.02,33.10,35.40,14.31,47.26,1026.75,2009.00,2620.70,2501.07,2832.65,600.10,588.08,35.09,0000 0000 0000 0000 000000
2016-09-03 02:37:20,0.12,2.35,0.00,30.06,33.12,35.40,14.15,47.27,1026.82,2008.99,2618.70,2499.63,2831.04,600.06,587.97,35.15,0000 0000 0000 0000 000000
2016-09-03 02:42:22,0.11,2.36,0.00,30.09,33.15,35.43,14.25,47.28,1026.83,2008.95,2616.81,2498.34,2829.58,599.98,587.93,35.20,0000 0000 0000 0000 000000
2016-09-03 02:47:23,0.07,2.36,0.00,30.14,33.17,35.46,14.31,47.33,1026.82,2008.86,2615.21,2497.25,2828.29,600.28,588.00,35.25,0000 0000 0000 0000 000000
2016-09-03 02:52:24,0.04,2.37,0.00,30.19,33.19,35.47,14.17,47.25,1026.86,2008.43,2613.63,2496.18,2827.07,599.76,587.64,35.30,0000 0000 0000 0000 000000
2016-09-03 02:57:26,0.08,2.37,0.00,30.21,33.21,35.50,14.16,47.24,1026.86,2008.11,2611.88,2495.09,2825.72,599.82,587.54,35.35,0000 0000 0000 0000 000000
2016-09-03 03:02:27,0.10,2.38,0.00,30.25,33.23,35.50,14.24,47.20,1026.87,2008.02,2610.08,2493.87,2824.33,599.94,587.59,35.40,0000 0000 0000 0000 000000
2016-09-03 03:07:29,0.09,2.38,0.00,30.27,33.26,35.55,14.25,47.23,1026.87,2008.00,2608.48,2492.81,2823.06,600.02,587.62,35.45,0000 0000 0000 0000 000000
2016-09-03 03:12:30,0.12,2.39,0.00,30.31,33.28,35.57,14.19,47.16,1026.87,2008.00,2606.82,2491.61,2821.73,599.84,587.39,35.50,0000 0000 0000 0000 000000
2016-09-03 03:17:31,0.08,2.39,0.00,30.34,33.31,35.62,14.20,47.13,1026.87,2008.00,2605.49,2490.61,2820.62,600.22,587.71,35.55,0000 0000 0000 0000 000000
2016-09-03 03:22:32,0.08,2.40,0.00,30.36,33.33,35.63,14.22,47.20,1026.87,2007.94,2604.05,2489.62,2819.46,599.71,587.15,35.60,0000 0000 0000 0000 000000
2016-09-03 03:27:34,0.07,2.40,0.00,30.40,33.36,35.65,14.27,47.29,1026.87,2007.86,2602.69,2488.74,2818.42,600.05,587.42,35.65,0000 0000 0000 0000 000000
2016-09-03 03:32:34,0.02,2.40,0.00,30.44,33.38,35.69,14.20,47.27,1026.87,2007.49,2601.38,2487.89,2817.40,600.10,587.36,35.70,0000 0000 0000 0000 000000
2016-09-03 03:37:36,0.04,2.40,0.00,30.46,33.40,35.71,14.21,47.19,1026.87,2007.13,2600.07,2487.04,2816.44,600.17,587.43,35.75,0000 0000 0000 0000 000000
2016-09-03 03:42:37,0.06,2.41,0.00,30.50,33.43,35.75,14.23,47.13,1026.87,2007.04,2598.96,2486.24,2815.77,600.14,587.13,35.80,0000 0000 0000 0000 000000
2016-09-03 03:47:38,0.06,2.41,0.00,30.54,33.45,35.77,14.24,47.02,1026.87,2007.00,2597.81,2485.62,2814.96,600.15,587.24,35.85,0000 0000 0000 0000 000000
2016-09-03 03:52:39,0.04,2.41,0.00,30.57,33.48,35.79,14.23,47.08,1026.87,2007.00,2596.87,2484.99,2814.13,600.16,587.07,35.90,0000 0000 0000 0000 000000
2016-09-03 03:57:40,0.06,2.42,0.00,30.61,33.51,35.82,14.16,47.10,1026.87,2007.00,2596.03,2484.23,2813.56,600.27,587.24,35.95,0000 0000 0000 0000 000000
2016-09-03 04:02:41,0.02,2.42,0.00,30.63,33.53,35.85,14.18,47.13,1026.87,2006.98,2595.34,2483.97,2813.00,600.20,587.10,36.00,0000 0000 0000 0000 000000
2016-09-03 04:07:43,0.04,2.42,0.00,30.65,33.56,35.88,14.18,47.17,1026.87,2006.83,2594.68,2483.28,2812.34,600.21,587.13,36.05,0000 0000 0000 0000 000000
2016-09-03 04:12:44,-0.02,2.42,0.00,30.68,33.59,35.91,14.16,47.21,1026.87,2006.51,2594.01,2482.99,2811.98,599.96,586.79,36.11,0000 0000 0000 0000 000000
2016-09-03 04:17:46,0.03,2.42,0.00,30.70,33.61,35.93,14.23,47.16,1026.87,2006.12,2593.27,2482.46,2811.30,599.88,586.58,36.16,0000 0000 0000 0000 000000
2016-09-03 04:22:47,0.01,2.42,0.00,30.73,33.64,35.96,14.17,47.20,1026.87,2006.03,2592.94,2482.01,2810.99,600.11,586.85,36.21,0000 0000 0000 0000 000000
2016-09-03 04:27:49,0.04,2.42,0.00,30.75,33.66,35.99,14.14,47.21,1026.87,2006.02,2592.20,2481.92,2810.56,599.81,586.59,36.26,0000 0000 0000 0000 000000
2016-09-03 04:32:50,0.03,2.42,0.00,30.78,33.69,36.01,14.21,47.16,1026.87,2006.00,2591.97,2481.35,2810.02,600.16,586.80,36.31,0000 0000 0000 0000 000000
2016-09-03 04:37:51,0.03,2.43,0.00,30.80,33.72,36.04,14.21,47.23,1026.87,2005.99,2591.21,2481.01,2809.80,600.08,586.63,36.36,0000 0000 0000 0000 000000
2016-09-03 04:42:52,0.01,2.43,0.00,30.81,33.75,36.07,14.12,47.19,1026.87,2005.96,2590.96,2480.86,2809.12,599.69,586.30,36.41,0000 0000 0000 0000 000000
2016-09-03 04:47:53,0.04,2.43,0.00,30.82,33.77,36.11,14.14,47.18,1026.87,2005.84,2590.34,2480.14,2808.97,599.83,586.43,36.46,0000 0000 0000 0000 000000
2016-09-03 04:52:54,-0.03,2.43,0.00,30.84,33.80,36.13,14.15,47.15,1026.87,2005.42,2589.87,2480.00,2808.24,599.83,586.36,36.51,0000 0000 0000 0000 000000
2016-09-03 04:57:55,0.04,2.43,0.00,30.86,33.82,36.13,14.15,47.17,1026.87,2005.19,2589.00,2479.44,2807.89,600.04,586.56,36.56,0000 0000 0000 0000 000000
2016-09-03 05:02:56,0.03,2.43,0.00,30.90,33.85,36.18,14.18,47.18,1026.87,2005.06,2588.13,2478.97,2807.13,600.33,586.79,36.61,0000 0000 0000 0000 000000
2016-09-03 05:07:58,0.06,2.43,0.00,30.90,33.87,36.20,14.24,47.17,1026.87,2005.00,2587.42,2478.27,2806.70,600.37,586.73,36.66,0000 0000 0000 0000 000000
2016-09-03 05:12:59,0.02,2.44,0.00,30.92,33.90,36.24,14.17,47.23,1026.88,2005.00,2586.85,2477.99,2806.04,599.96,586.34,36.71,0000 0000 0000 0000 000000
2016-09-03 05:18:01,0.05,2.44,0.00,30.93,33.92,36.25,14.15,47.24,1026.88,2005.00,2586.05,2477.54,2805.76,599.94,586.29,36.76,0000 0000 0000 0000 000000
2016-09-03 05:23:02,0.03,2.44,0.00,30.96,33.95,36.29,14.14,47.08,1026.88,2004.99,2585.62,2477.03,2805.05,599.95,586.29,36.81,0000 0000 0000 0000 000000
2016-09-03 05:28:03,0.01,2.44,0.00,30.96,33.96,36.31,14.16,47.18,1026.88,2004.96,2585.00,2476.89,2804.83,599.85,586.16,36.86,0000 0000 0000 0000 000000
2016-09-03 05:33:05,0.07,2.44,0.00,30.98,33.99,36.33,14.20,47.22,1026.88,2004.90,2584.01,2476.13,2803.94,600.23,586.42,36.91,0000 0000 0000 0000 000000
2016-09-03 05:38:06,0.02,2.45,0.00,31.00,34.01,36.37,14.18,47.27,1026.88,2004.58,2582.94,2475.35,2803.08,599.95,586.13,36.96,0000 0000 0000 0000 000000
2016-09-03 05:43:08,0.01,2.45,0.00,31.02,34.03,36.40,14.18,47.26,1026.87,2004.16,2582.07,2474.93,2802.47,600.10,586.20,37.02,0000 0000 0000 0000 000000
2016-09-03 05:48:09,0.05,2.45,0.00,31.05,34.05,36.43,14.18,47.36,1026.88,2004.04,2581.28,2474.19,2802.00,599.76,585.95,37.07,0000 0000 0000 0000 000000
2016-09-03 05:53:10,0.02,2.45,0.00,31.07,34.07,36.42,14.22,47.38,1026.88,2004.01,2580.89,2474.00,2801.43,600.08,586.14,37.12,0000 0000 0000 0000 000000
2016-09-03 05:58:11,0.03,2.45,0.00,31.09,34.10,36.47,14.09,46.99,1026.89,2004.00,2580.15,2473.74,2801.01,599.67,585.73,37.17,0000 0000 0000 0000 000000
2016-09-03 06:03:13,0.04,2.45,0.00,31.10,34.12,36.46,14.11,47.14,1026.89,2003.99,2579.79,2473.08,2800.71,599.67,585.80,37.22,0000 0000 0000 0000 000000
2016-09-03 06:08:14,0.03,2.46,0.00,31.10,34.14,36.51,14.10,47.08,1026.89,2003.98,2578.96,2472.80,2800.03,599.75,585.85,37.27,0000 0000 0000 0000 000000
2016-09-03 06:13:15,0.06,2.46,0.00,31.13,34.16,36.53,14.22,47.08,1026.90,2003.95,2578.09,2472.06,2799.48,599.89,585.82,37.32,0000 0000 0000 0000 000000
2016-09-03 06:18:17,-0.02,2.46,0.00,31.14,34.18,36.53,14.23,47.11,1026.93,2003.72,2577.82,2471.97,2799.01,600.07,586.06,37.37,0000 0000 0000 0000 000000
2016-09-03 06:23:18,-0.00,2.46,0.00,31.15,34.20,36.55,14.28,47.30,1026.95,2003.11,2577.09,2471.39,2798.60,600.28,586.26,37.42,0000 0000 0000 0000 000000
2016-09-03 06:28:19,0.01,2.46,0.00,31.20,34.22,36.56,14.19,47.16,1027.05,2003.04,2576.99,2471.03,2798.07,600.05,585.89,37.47,0000 0000 0000 0000 000000
2016-09-03 06:33:20,0.01,2.46,0.00,31.19,34.24,36.59,14.20,47.17,1027.17,2003.01,2576.51,2470.99,2797.98,600.13,586.14,37.52,0000 0000 0000 0000 000000
2016-09-03 06:38:22,0.04,2.46,0.00,31.21,34.26,36.62,14.14,47.12,1027.22,2003.00,2576.02,2470.64,2797.44,599.73,585.80,37.57,0000 0000 0000 0000 000000
2016-09-03 06:43:23,0.02,2.46,0.00,31.21,34.28,36.62,14.14,47.14,1027.16,2003.00,2575.94,2470.10,2797.02,599.91,585.91,37.62,0000 0000 0000 0000 000000
2016-09-03 06:48:24,0.01,2.46,0.00,31.24,34.30,36.68,14.10,47.16,1027.10,2002.95,2575.20,2469.99,2796.89,599.84,585.76,37.67,0000 0000 0000 0000 000000
2016-09-03 06:53:25,0.02,2.46,0.00,31.26,34.32,36.67,14.10,47.13,1027.07,2002.87,2574.97,2469.78,2796.23,599.96,585.93,37.72,0000 0000 0000 0000 000000
2016-09-03 06:58:27,0.01,2.47,0.00,31.28,34.34,36.69,14.17,47.02,1027.09,2002.66,2574.39,2469.15,2796.00,600.02,585.76,37.77,0000 0000 0000 0000 000000
2016-09-03 07:03:28,-0.02,2.46,0.00,31.30,34.35,36.71,14.25,47.24,1027.10,2002.31,2574.00,2469.00,2795.91,600.22,586.00,37.82,0000 0000 0000 0000 000000
2016-09-03 07:08:30,0.02,2.46,0.00,31.32,34.37,36.71,14.12,47.11,1027.04,2002.26,2573.69,2468.95,2795.22,599.66,585.52,37.87,0000 0000 0000 0000 000000
2016-09-03 07:13:31,0.02,2.47,0.00,31.35,34.40,36.75,14.19,47.08,1027.13,2002.09,2573.06,2468.52,2795.00,599.74,585.39,37.93,0000 0000 0000 0000 000000
2016-09-03 07:18:33,0.01,2.47,0.00,31.37,34.41,36.78,14.12,46.87,1027.10,2002.02,2572.92,2468.05,2794.81,599.97,585.61,37.98,0000 0000 0000 0000 000000
2016-09-03 07:23:34,0.02,2.47,0.00,31.39,34.43,36.78,14.17,47.13,1027.08,2002.00,2572.44,2467.99,2794.12,600.14,585.89,38.03,0000 0000 0000 0000 000000
2016-09-03 07:28:35,0.02,2.47,0.00,31.39,34.45,36.80,14.17,47.01,1027.14,2002.00,2572.02,2467.74,2793.99,600.04,585.60,38.08,0000 0000 0000 0000 000000
2016-09-03 07:33:37,0.04,2.47,0.00,31.42,34.47,36.80,14.16,47.06,1027.10,2002.00,2571.48,2467.08,2793.67,600.15,585.72,38.13,0000 0000 0000 0000 000000
2016-09-03 07:38:38,0.01,2.47,0.00,31.44,34.49,36.83,14.23,47.06,1027.09,2002.00,2571.01,2467.00,2793.03,600.27,585.75,38.18,0000 0000 0000 0000 000000
2016-09-03 07:43:39,0.01,2.47,0.00,31.47,34.50,36.88,14.14,47.21,1027.23,2001.95,2570.83,2466.76,2792.96,599.97,585.52,38.23,0000 0000 0000 0000 000000
2016-09-03 07:48:40,0.03,2.47,0.00,31.48,34.52,36.87,14.20,46.92,1027.23,2001.77,2570.15,2466.17,2792.41,600.14,585.63,38.28,0000 0000 0000 0000 000000
2016-09-03 07:53:42,0.01,2.48,0.00,31.52,34.54,36.86,14.12,46.79,1027.26,2001.75,2569.98,2466.01,2792.04,599.94,585.41,38.33,0000 0000 0000 0000 000000
2016-09-03 07:58:43,-0.03,2.47,0.00,31.55,34.55,36.88,14.13,47.01,1027.29,2001.33,2569.51,2465.97,2791.97,600.00,585.35,38.38,0000 0000 0000 0000 000000
2016-09-03 08:03:44,0.02,2.47,0.00,31.59,34.57,36.89,14.19,46.98,1027.35,2001.08,2569.04,2465.61,2791.46,600.42,585.61,38.43,0000 0000 0000 0000 000000
2016-09-03 08:08:45,0.01,2.48,0.00,31.62,34.59,36.89,14.04,46.93,1027.35,2001.01,2568.93,2465.05,2791.02,599.58,584.85,38.48,0000 0000 0000 0000 000000
2016-09-03 08:13:46,0.02,2.48,0.00,31.65,34.61,36.90,14.15,47.02,1027.36,2001.00,2568.24,2465.00,2790.89,600.08,585.29,38.53,0000 0000 0000 0000 000000
2016-09-03 08:18:48,0.04,2.48,0.00,31.69,34.63,36.92,14.10,47.04,1027.36,2001.00,2567.97,2464.61,2790.11,599.98,585.22,38.58,0000 0000 0000 0000 000000
2016-09-03 08:23:49,0.03,2.48,0.00,31.74,34.65,36.95,14.11,46.92,1027.36,2001.00,2567.29,2464.05,2789.98,600.27,585.35,38.63,0000 0000 0000 0000 000000
2016-09-03 08:28:51,0.02,2.48,0.00,31.77,34.67,36.97,14.14,47.01,1027.36,2000.99,2566.98,2464.00,2789.45,599.97,584.96,38.68,0000 0000 0000 0000 000000
2016-09-03 08:33:51,0.03,2.48,0.00,31.81,34.70,37.01,14.09,46.93,1027.36,2000.97,2566.41,2463.75,2789.04,599.79,584.77,38.73,0000 0000 0000 0000 000000
2016-09-03 08:38:53,0.00,2.48,0.00,31.83,34.72,37.02,14.12,47.03,1027.37,2000.85,2566.00,2463.08,2788.88,600.21,585.05,38.79,0000 0000 0000 0000 000000
2016-09-03 08:43:54,0.01,2.48,0.00,31.82,34.74,37.08,14.10,47.04,1027.36,2000.60,2565.43,2462.98,2788.18,600.18,585.10,38.84,0000 0000 0000 0000 000000
2016-09-03 08:48:55,0.02,2.48,0.00,31.82,34.76,37.12,14.15,47.02,1027.37,2000.40,2564.95,2462.49,2787.99,599.90,584.89,38.89,0000 0000 0000 0000 000000
2016-09-03 08:53:56,0.02,2.49,0.00,31.82,34.79,37.15,14.14,47.08,1027.37,2000.21,2564.19,2462.03,2787.44,600.05,584.97,38.94,0000 0000 0000 0000 000000
2016-09-03 08:58:58,0.02,2.49,0.00,31.83,34.81,37.17,14.11,46.98,1027.40,2000.07,2563.58,2461.82,2787.00,599.89,584.85,38.99,0000 0000 0000 0000 000000
2016-09-03 09:03:59,0.06,2.49,0.00,31.84,34.82,37.23,14.15,47.08,1027.44,2000.01,2562.57,2461.03,2786.27,599.96,584.89,39.04,0000 0000 0000 0000 000000
2016-09-03 09:09:00,0.14,2.50,0.00,31.83,34.85,37.25,14.13,47.07,1027.53,2000.00,2560.53,2459.80,2784.85,599.89,584.85,39.09,0000 0000 0000 0000 000000
2016-09-03 09:14:01,0.11,2.50,0.00,31.83,34.86,37.27,14.19,46.98,1027.60,2000.00,2558.41,2458.47,2783.39,599.95,585.05,39.14,0000 0000 0000 0000 000000
2016-09-03 09:19:02,0.12,2.51,0.00,31.84,34.87,37.28,14.13,47.04,1027.65,2000.00,2556.32,2457.21,2781.86,599.84,584.88,39.19,0000 0000 0000 0000 000000
2016-09-03 09:24:04,0.10,2.51,0.00,31.86,34.89,37.31,14.09,47.11,1027.72,2000.00,2554.40,2456.04,2780.63,599.98,585.03,39.24,0000 0000 0000 0000 000000
2016-09-03 09:29:05,0.09,2.52,0.00,31.85,34.90,37.29,14.08,47.16,1027.78,1999.99,2552.74,2455.05,2779.54,599.90,584.96,39.29,0000 0000 0000 0000 000000
2016-09-03 09:34:06,0.08,2.52,0.00,31.84,34.90,37.30,14.18,47.16,1027.82,1999.99,2551.32,2454.17,2778.56,600.04,585.13,39.34,0000 0000 0000 0000 000000
2016-09-03 09:39:07,0.06,2.53,0.00,31.84,34.92,37.34,14.18,47.07,1027.85,1999.98,2550.02,2453.58,2777.86,600.24,585.38,39.39,0000 0000 0000 0000 000000
2016-09-03 09:44:08,0.05,2.53,0.00,31.85,34.92,37.33,14.13,46.97,1027.85,1999.96,2548.89,2452.98,2777.07,600.15,585.31,39.44,0000 0000 0000 0000 000000
2016-09-03 09:49:10,0.06,2.53,0.00,31.87,34.93,37.34,14.14,47.00,1027.85,1999.93,2547.91,2452.19,2776.30,599.84,585.14,39.49,0000 0000 0000 0000 000000
2016-09-03 09:54:11,0.03,2.54,0.00,31.85,34.94,37.35,14.21,47.07,1027.86,1999.90,2546.92,2451.88,2775.86,599.80,585.02,39.54,0000 0000 0000 0000 000000
2016-09-03 09:59:12,0.07,2.54,0.00,31.85,34.95,37.36,14.13,46.99,1027.86,1999.87,2546.02,2451.09,2775.09,600.12,585.44,39.59,0000 0000 0000 0000 000000
2016-09-03 10:04:14,0.05,2.54,0.00,31.86,34.95,37.36,14.19,47.01,1027.87,1999.74,2544.91,2450.71,2774.59,599.93,585.06,39.64,0000 0000 0000 0000 000000
2016-09-03 10:09:15,0.01,2.54,0.00,31.87,34.95,37.38,14.12,47.08,1027.89,1999.55,2543.95,2450.02,2773.79,599.82,585.02,39.69,0000 0000 0000 0000 000000
2016-09-03 10:14:16,0.04,2.55,0.00,31.85,34.97,37.40,14.21,47.08,1027.93,1999.31,2543.09,2449.50,2773.05,600.08,585.18,39.75,0000 0000 0000 0000 000000
2016-09-03 10:19:18,0.02,2.55,0.00,31.86,34.97,37.39,14.10,46.85,1027.92,1999.22,2542.62,2449.05,2772.95,599.64,584.83,39.80,0000 0000 0000 0000 000000
2016-09-03 10:24:19,0.02,2.55,0.00,31.84,34.97,37.41,14.09,46.89,1027.88,1999.13,2542.00,2448.98,2772.27,600.10,585.28,39.85,0000 0000 0000 0000 000000
2016-09-03 10:29:20,0.04,2.55,0.00,31.84,34.98,37.42,14.15,47.10,1027.91,1999.06,2541.29,2448.48,2772.00,600.01,585.09,39.90,0000 0000 0000 0000 000000
2016-09-03 10:34:22,0.02,2.55,0.00,31.82,34.98,37.41,14.12,46.98,1027.95,1999.14,2540.96,2448.03,2771.89,599.87,585.15,39.95,0000 0000 0000 0000 000000
2016-09-03 10:39:23,0.03,2.55,0.00,31.80,34.98,37.44,14.14,46.89,1027.94,1999.10,2540.27,2447.99,2771.19,600.08,585.36,40.00,0000 0000 0000 0000 000000
2016-09-03 10:44:24,0.00,2.55,0.00,31.78,34.99,37.45,14.24,46.97,1028.07,1999.06,2539.99,2447.92,2771.00,600.21,585.65,40.05,0000 0000 0000 0000 000000
2016-09-03 10:49:26,0.04,2.55,0.00,31.77,34.99,37.49,14.15,46.92,1028.03,1999.06,2539.40,2447.35,2770.90,599.95,585.31,40.10,0000 0000 0000 0000 000000
2016-09-03 10:54:27,0.02,2.56,0.00,31.74,34.99,37.51,14.22,47.04,1028.02,1999.03,2539.00,2447.01,2770.28,600.13,585.64,40.15,0000 0000 0000 0000 000000
2016-09-03 10:59:29,0.02,2.56,0.00,31.71,34.98,37.57,14.11,46.93,1027.97,1999.04,2538.50,2446.99,2770.03,599.90,585.35,40.20,0000 0000 0000 0000 000000
2016-09-03 11:04:30,0.02,2.56,0.00,31.68,34.98,37.59,14.18,47.00,1028.02,1999.08,2538.01,2446.82,2769.97,600.00,585.67,40.25,0000 0000 0000 0000 000000
2016-09-03 11:09:31,0.03,2.56,0.00,31.67,34.97,37.64,14.15,46.95,1028.15,1999.11,2537.86,2446.36,2769.83,600.23,585.83,40.30,0000 0000 0000 0000 000000
2016-09-03 11:14:33,0.04,2.56,0.00,31.63,34.97,37.63,14.17,47.00,1028.14,1999.14,2537.10,2446.04,2769.23,599.97,585.74,40.35,0000 0000 0000 0000 000000
2016-09-03 11:19:34,0.01,2.56,0.00,31.61,34.97,37.64,14.20,47.08,1028.24,1999.13,2536.89,2446.00,2769.00,600.40,586.12,40.40,0000 0000 0000 0000 000000
2016-09-03 11:24:36,0.03,2.56,0.00,31.59,34.96,37.67,14.19,47.02,1028.27,1999.13,2536.11,2445.87,2768.89,599.62,585.44,40.45,0000 0000 0000 0000 000000
2016-09-03 11:29:37,0.04,2.57,0.00,31.56,34.95,37.64,14.21,47.08,1028.28,1999.19,2535.98,2445.34,2768.30,600.00,585.93,40.50,0000 0000 0000 0000 000000
2016-09-03 11:34:39,0.03,2.57,0.00,31.54,34.95,37.64,14.16,47.03,1028.30,1999.31,2535.39,2445.07,2768.03,599.98,586.09,40.55,0000 0000 0000 0000 000000
2016-09-03 11:39:40,0.05,2.57,0.00,31.51,34.93,37.64,14.25,47.13,1028.33,1999.29,2534.61,2444.77,2767.67,600.00,585.97,40.60,0000 0000 0000 0000 000000
2016-09-03 11:44:41,0.22,2.58,0.00,31.48,34.92,37.62,14.26,47.11,1028.33,1999.21,2531.50,2442.67,2765.36,599.89,586.06,40.66,0000 0000 0000 0000 000000
2016-09-03 11:49:42,0.22,2.59,0.00,31.48,34.91,37.65,14.27,47.07,1028.33,1999.32,2527.83,2440.30,2762.63,600.21,586.39,40.71,0000 0000 0000 0000 000000
2016-09-03 11:54:43,0.35,2.60,0.00,31.44,34.90,37.63,14.22,47.19,1028.33,1999.33,2523.11,2437.32,2759.35,600.28,586.47,40.76,0000 0000 0000 0000 000000
2016-09-03 11:59:44,0.34,2.62,0.00,31.41,34.89,37.62,14.25,47.08,1028.33,1999.35,2517.44,2433.71,2755.28,600.25,586.51,40.81,0000 0000 0000 0000 000000
2016-09-03 12:04:45,0.38,2.64,0.00,31.39,34.87,37.59,14.23,46.98,1028.33,1999.46,2511.66,2430.04,2751.20,600.14,586.39,40.86,0000 0000 0000 0000 000000
2016-09-03 12:09:47,0.43,2.66,0.00,31.35,34.86,37.59,14.20,47.12,1028.33,1999.49,2504.78,2425.67,2746.42,599.81,586.19,40.91,0000 0000 0000 0000 000000
2016-09-03 12:14:48,0.45,2.69,0.00,31.34,34.85,37.59,14.21,47.20,1028.33,1999.68,2498.05,2421.34,2741.54,600.29,586.68,40.96,0000 0000 0000 0000 000000
2016-09-03 12:19:49,0.41,2.71,0.00,31.31,34.82,37.56,14.17,47.04,1028.33,1999.76,2491.79,2417.15,2736.81,599.94,586.58,41.01,0000 0000 0000 0000 000000
2016-09-03 12:24:50,0.41,2.73,0.00,31.28,34.81,37.54,14.18,46.88,1028.33,1999.78,2485.39,2413.02,2732.26,599.94,586.54,41.06,0000 0000 0000 0000 000000
2016-09-03 12:29:52,0.44,2.75,0.00,31.25,34.79,37.53,14.29,47.15,1028.32,1999.95,2478.75,2408.75,2727.51,600.42,586.95,41.11,0000 0000 0000 0000 000000
2016-09-03 12:34:53,0.44,2.77,0.00,31.23,34.77,37.51,14.22,47.17,1028.32,1999.97,2471.96,2404.36,2722.59,600.24,586.76,41.16,0000 0000 0000 0000 000000
2016-09-03 12:39:54,0.42,2.80,0.00,31.20,34.75,37.49,14.21,47.26,1028.32,1999.99,2465.46,2400.11,2717.86,599.93,586.57,41.21,0000 0000 0000 0000 000000
2016-09-03 12:44:55,0.40,2.82,0.00,31.17,34.73,37.47,14.23,47.12,1028.33,1999.99,2459.21,2396.06,2713.37,600.32,586.95,41.26,0000 0000 0000 0000 000000
2016-09-03 12:49:56,0.39,2.84,0.00,31.15,34.70,37.44,14.29,47.15,1028.33,1999.99,2453.30,2392.19,2709.05,600.40,587.10,41.31,0000 0000 0000 0000 000000
2016-09-03 12:54:57,0.37,2.86,0.00,31.12,34.68,37.42,14.17,47.13,1028.33,1999.99,2447.70,2388.51,2704.95,599.75,586.56,41.36,0000 0000 0000 0000 000000